Dewpoint
1 1 1 -1 -1 -2 -1 0 1 -1 -4 3 3 1 6 7 9 10 10 10 9 8 8 8 7 6 4 5 5 6 8 8 4 1 7 10 10 9 10 9 7 5 5 6
0 2 -1 -1 -0 1 -0 -0 -0 -2 -3 -1 -1 0 3 7 7 9 10 10 9 8 9 8 7 8 6 5 4 4 5 7 4 5 7 8 8 9 9 9 8 5 6 7
1 -1 -0 1 -1 -0 -1 -1 -0 0 -1 -5 -2 -1 -2 2 7 9 9 8 9 9 9 8 8 6 5 3 5 5 5 8 7 6 7 7 10 10 10 9 6 5 6 6
1 -1 0 0 0 -1 -0 -1 -0 0 -0 -1 -4 -1 -1 -1 6 6 8 9 9 9 9 9 8 8 6 5 6 7 7 7 8 7 7 7 8 9 10 8 6 6 6 5
0 1 2 2 0 -1 -1 -1 0 0 0 0 -0 -1 -3 0 1 6 6 8 8 9 9 8 8 7 7 7 7 8 8 9 7 7 7 7 9 9 9 7 6 6 6 5
-1 -1 -0 -0 -1 -1 -1 -1 0 1 2 3 1 0 0 1 0 -1 3 6 7 7 8 6 7 8 7 7 7 8 8 8 8 7 7 7 9 9 9 7 6 7 6 5
0 0 -1 0 -0 -0 -1 1 4 4 5 4 2 3 2 -2 -3 -1 -0 2 4 7 7 6 6 7 7 7 7 8 8 9 9 7 6 6 7 9 9 8 8 7 6 5
1 1 0 0 -0 1 1 1 4 4 5 2 2 4 1 -1 -0 1 -0 -2 -2 3 4 6 5 6 7 6 7 8 9 9 8 8 7 7 8 10 9 8 9 8 6 5
2 1 1 1 1 -0 1 2 -0 5 5 5 3 1 -4 -1 3 3 2 1 0 2 4 4 5 4 5 6 6 7 8 7 8 8 8 9 9 10 9 9 8 8 6 6
-0 -1 1 1 1 0 -1 0 2 3 4 4 2 1 -0 -2 -1 3 3 3 4 3 4 4 5 5 4 4 5 6 6 6 7 8 9 9 10 9 7 7 8 8 7 6
-0 -2 -2 2 1 1 1 0 0 1 2 3 4 1 -3 -4 -2 -0 2 2 3 3 4 4 4 5 5 6 6 6 7 8 9 9 10 10 9 8 7 7 5 5 7 6
0 -1 -1 -1 0 -1 -2 0 0 3 1 3 3 2 -4 -5 -4 -3 -1 2 2 3 4 6 6 6 6 6 7 7 8 8 6 7 9 8 7 7 6 5 8 7 6 5
1 1 0 -1 -1 -0 1 0 0 1 1 3 3 2 -4 -4 -6 -6 -3 -0 2 2 4 6 7 7 7 7 8 8 7 6 6 6 6 6 6 6 7 7 7 5 3 -1
-1 2 -1 0 -1 -1 2 0 1 1 3 2 2 -0 -3 -3 -4 -5 -5 -6 -3 3 3 4 6 6 8 9 9 7 7 6 6 6 7 7 6 7 6 6 4 2 -0 -1
-1 1 1 -1 -2 -1 -1 -0 1 0 0 2 0 0 -1 -3 -5 -6 -6 -4 -2 -0 4 5 6 6 7 8 8 7 7 7 7 7 6 7 7 5 4 4 1 -3 -3 -2
0 1 -2 1 -0 -0 1 0 0 -0 -1 -0 -1 -1 -3 -4 -3 -3 -2 0 1 2 2 2 2 2 2 3 4 5 6 7 8 8 8 7 5 3 3 1 -2 -2 -1 -1
1 2 1 2 -0 -1 2 -0 0 -1 -1 -1 1 -1 -4 -4 -2 -2 -2 -2 -2 -1 -2 -2 -3 -3 -3 -2 -1 2 3 5 7 8 7 6 4 2 -0 -2 -2 -1 -1 -0
2 1 1 2 0 2 -1 -2 -2 -0 -1 -3 -3 -4 -4 -3 -2 -2 -2 -2 -2 -2 -2 -2 -2 -2 -2 -1 -1 -1 2 5 6 6 5 4 3 1 -1 -1 -1 -1 -0 -0
2 1 3 3 3 0 -1 -3 -2 -2 -3 -3 -3 -2 -1 -1 -0 1 -1 -1 -1 -1 -1 -1 -1 -0 -0 -0 0 1 3 4 4 4 3 2 1 -1 -1 -1 -1 -0 0 -2
1 1 2 1 2 3 1 -2 -5 -5 -1 -3 -1 0 1 -0 -0 1 -0 -0 -0 -0 -0 -0 0 1 1 1 2 3 4 3 3 2 1 0 -1 -1 -1 0 -0 -0 -2 -6
3 2 2 0 2 2 -0 -4 -5 -2 -1 -3 -1 -0 0 -1 -3 0 0 -0 -0 -0 0 0 1 1 1 2 2 2 2 1 0 -1 -1 -1 0 -0 -0 -0 -2 -4 -7 -9
5 4 2 1 1 5 -3 -3 -2 -2 -5 -3 -2 -1 -1 -2 -0 0 -0 -0 -0 -0 -0 -0 0 0 0 0 1 -0 -1 -2 -1 -1 -0 -0 -0 -2 -4 -6 -8 -10 -12 -13
4 3 4 3 4 0 -2 -4 -5 -5 -3 -3 -3 -2 -2 -1 -0 -0 -0 -0 -1 -1 -1 -1 -1 -2 -2 -2 -1 -1 -1 -1 -1 -2 -5 -7 -9 -11 -12 -13 -14 -14 -14 -13
1 0 2 2 1 2 1 -1 -2 -4 -3 -3 -3 -2 -2 -1 0 -0 -1 -1 -2 -2 -2 -3 -3 -3 -3 -3 -3 -3 -5 -8 -11 -13 -15 -15 -15 -15 -14 -14 -13 -13 -12 -10
2 1 3 2 3 3 2 1 -1 -2 -2 -2 -1 -0 -0 -0 -0 -0 -1 -2 -2 -3 -3 -3 -3 -3 -4 -6 -8 -10 -11 -13 -14 -14 -14 -13 -12 -12 -12 -12 -10 -10 -9 -7
2 2 3 2 1 0 0 -0 -0 -0 0 1 0 1 0 -0 -0 -1 -2 -3 -3 -3 -3 -3 -4 -6 -7 -9 -11 -11 -12 -13 -13 -12 -12 -11 -10 -9 -10 -11 -16 -20 -24 -27
Wind_Speed
2 4 3 6 5 2 2 3 2 3 3 5 7 6 11 18 16 19 26 27 25 27 22 23 26 29 29 26 25 26 24 24 24 26 29 29 28 22 21 20 21 17 15 17
5 4 6 4 7 3 5 3 2 4 1 6 1 7 8 14 22 25 31 31 31 30 27 25 27 28 31 33 31 28 27 28 27 28 28 28 25 25 22 21 21 19 15 16
6 5 2 3 0 4 3 0 0 3 5 2 2 2 5 5 10 20 25 35 31 34 31 32 32 32 32 33 32 32 30 30 29 29 29 28 28 27 26 26 24 19 17 17
4 4 3 1 3 5 2 4 2 2 3 1 3 3 4 5 15 8 23 31 36 35 34 32 34 35 35 34 32 30 30 30 30 29 29 31 30 30 31 28 23 20 20 19
6 3 4 5 7 6 6 3 2 1 1 2 2 3 5 3 6 16 21 32 39 42 39 38 37 35 34 34 32 31 30 30 30 31 31 32 32 32 29 27 25 22 21 21
4 2 4 7 1 4 3 3 6 4 3 2 3 4 5 5 8 9 21 32 44 40 41 39 39 38 36 35 34 33 32 31 31 31 33 34 34 34 31 28 26 25 23 23
1 3 2 3 2 3 4 5 2 3 3 5 0 1 8 6 3 7 11 30 44 44 42 40 39 41 41 39 38 37 37 37 36 35 33 35 37 36 32 29 29 26 26 25
6 5 5 4 5 7 4 6 5 4 3 3 2 4 6 2 6 12 16 21 28 35 39 42 42 41 41 41 40 39 39 38 38 39 37 37 37 37 33 30 31 27 25 25
4 4 1 1 1 2 5 3 4 6 3 2 3 6 9 2 4 9 3 8 15 24 30 37 41 40 39 40 39 37 36 36 38 38 38 36 36 35 37 34 31 27 27 28
7 2 1 2 1 2 1 6 3 2 3 3 4 4 5 8 4 3 6 3 5 13 22 27 32 37 37 37 36 30 32 33 34 35 39 38 37 35 34 28 26 26 29 30
5 4 4 1 5 7 2 1 5 4 4 4 1 5 7 6 5 4 6 8 8 10 14 16 18 25 28 29 31 33 30 28 30 29 31 35 33 30 26 26 28 27 26 31
6 5 5 8 2 3 4 7 6 5 3 1 3 6 4 7 5 7 9 2 5 8 11 15 16 18 18 22 26 28 28 24 21 22 25 29 27 27 29 29 26 26 28 31
7 1 0 8 5 3 4 5 3 5 4 6 5 6 2 6 7 5 8 8 6 8 12 14 17 21 22 24 28 26 20 20 23 21 23 26 30 30 26 23 24 25 26 26
11 4 7 8 8 4 4 5 5 6 4 5 6 7 6 8 6 10 14 13 12 11 13 16 18 19 19 22 25 22 21 24 25 24 26 29 28 26 25 23 26 26 27 27
6 8 6 4 4 5 4 5 7 7 6 6 7 8 9 6 6 8 8 3 5 9 11 13 14 15 15 18 21 22 25 26 27 27 27 27 25 27 27 26 25 25 25 22
3 4 3 3 3 3 3 6 6 4 2 5 5 6 7 3 1 4 5 12 15 13 12 9 6 5 5 8 12 17 20 23 24 24 25 23 26 27 26 25 28 27 25 26
8 7 3 4 3 4 6 8 8 6 5 8 7 10 6 3 6 7 12 15 17 16 15 14 13 12 9 8 7 7 10 14 17 19 20 21 24 23 23 23 22 19 15 10
7 7 3 3 3 2 6 1 3 8 6 6 4 4 8 10 12 13 11 13 14 12 11 10 8 8 6 4 5 7 9 11 11 12 14 16 19 21 22 18 14 10 10 15
1 6 3 5 4 5 3 4 7 7 9 6 6 6 14 22 19 10 9 11 11 9 7 6 6 4 4 4 4 5 5 5 5 7 10 13 16 18 17 15 6 12 23 15
5 6 5 3 5 7 8 4 8 4 6 7 10 9 13 13 4 3 9 9 8 6 4 4 3 2 2 3 3 2 1 1 3 6 10 14 17 16 11 15 19 20 15 12
4 3 5 2 3 7 7 4 10 5 8 17 25 26 22 5 5 16 12 9 5 4 4 4 4 4 5 7 6 8 9 9 9 7 6 5 8 11 13 16 14 13 12 16
7 7 3 3 3 7 11 6 9 7 3 27 29 27 19 12 16 16 13 10 8 8 8 8 8 11 13 12 8 13 12 11 7 3 1 6 8 9 9 9 11 14 17 19
3 6 6 9 7 4 15 6 16 7 11 26 27 23 21 21 20 18 16 14 12 11 12 12 13 15 15 13 9 8 8 3 2 4 4 4 6 8 11 13 15 16 18 22
2 4 4 4 5 6 11 16 12 15 22 27 26 26 25 23 22 21 18 17 16 16 15 14 13 14 13 9 6 5 4 3 2 3 4 6 9 11 13 15 17 20 22 25
4 9 7 3 4 2 12 17 16 19 21 24 23 25 24 23 24 21 20 19 18 17 15 13 12 11 10 7 5 4 2 2 4 6 9 11 14 17 19 21 23 25 26 27
7 7 6 8 17 11 10 21 21 23 24 25 27 25 21 20 22 22 21 19 18 17 15 12 10 8 8 6 3 2 3 6 8 10 12 15 18 21 24 28 32 31 33 34
Wind_Direction
38 62 244 234 178 228 185 130 253 274 290 172 213 223 194 197 198 195 212 215 217 217 213 211 207 207 206 204 204 208 208 209 207 205 207 210 217 216 216 219 223 237 253 249
36 256 231 249 152 180 247 152 268 289 277 191 149 227 187 189 205 203 202 212 218 219 214 215 214 211 212 214 216 217 217 214 212 212 214 222 228 220 227 233 233 242 248 236
160 240 160 205 242 168 250 146 139 248 324 40 60 355 159 214 207 215 221 220 221 220 215 214 214 213 212 213 214 216 218 216 218 220 220 228 224 222 227 229 234 242 237 229
230 264 218 193 235 149 245 215 145 8 39 270 85 278 261 207 215 215 222 221 223 223 226 224 218 218 217 217 217 219 221 221 224 227 227 233 234 232 233 237 241 235 226 222
241 213 191 217 223 164 219 211 51 327 138 32 345 85 265 134 231 231 225 227 225 226 229 229 227 227 223 220 219 222 224 226 229 230 233 236 237 240 243 243 236 229 221 219
230 221 190 193 287 196 146 97 45 43 74 47 262 131 279 194 207 219 222 229 230 227 227 230 232 231 230 229 226 227 230 232 235 235 238 238 241 244 241 237 230 229 227 226
286 226 240 168 132 0 94 73 337 4 20 215 234 90 240 265 309 235 215 221 232 231 231 231 228 228 230 231 232 231 233 236 237 237 238 240 244 247 244 245 242 236 229 229
173 304 188 195 183 182 183 145 157 202 187 258 279 234 256 182 293 287 268 256 242 233 232 231 231 231 233 234 236 237 237 240 241 243 243 245 245 249 250 244 245 246 236 237
143 265 283 199 168 160 177 150 168 102 16 61 254 292 301 87 345 320 330 201 217 225 231 233 230 234 236 238 241 241 243 244 246 249 247 248 248 246 249 245 240 238 235 236
207 141 253 263 165 241 158 158 87 25 159 227 289 284 240 316 318 310 319 293 218 213 223 231 233 234 240 245 243 241 250 253 252 254 253 247 244 246 253 252 246 243 240 244
140 137 249 194 204 192 94 154 62 117 131 166 225 265 215 245 281 309 249 241 225 219 216 222 224 229 239 244 240 243 245 246 248 244 248 248 251 250 256 257 260 259 253 249
202 151 197 212 319 152 174 197 153 131 216 124 157 268 254 245 264 272 289 280 223 209 202 208 213 220 223 227 232 237 245 251 260 254 248 250 252 253 253 256 245 242 241 236
182 209 72 332 3 6 200 194 145 111 93 190 142 261 311 290 283 283 271 277 255 223 217 219 221 223 224 227 231 236 245 257 262 256 251 252 253 257 253 247 240 238 234 224
140 144 168 213 215 158 186 191 175 139 125 182 218 266 292 290 294 291 284 297 263 238 231 235 240 244 242 245 246 254 261 268 270 266 260 255 261 248 232 233 231 232 227 233
143 200 183 223 207 178 210 179 178 191 196 173 244 206 253 244 266 289 295 239 224 230 238 252 263 270 271 272 273 273 265 264 260 261 264 263 241 231 226 229 229 226 228 216
184 208 168 139 95 63 232 254 201 221 170 255 243 258 227 246 164 50 130 116 102 92 84 75 54 27 341 300 289 286 286 285 282 276 265 251 234 229 229 230 223 223 229 226
154 140 118 222 33 46 324 220 212 212 197 181 203 223 158 136 126 126 120 108 101 96 89 79 67 56 43 22 353 323 297 289 280 269 261 249 235 229 227 222 221 221 212 254
142 116 94 162 54 251 247 311 232 217 241 235 281 207 168 152 127 119 113 110 103 98 93 87 75 54 47 21 333 318 302 285 273 256 243 233 229 226 214 208 206 228 288 300
10 123 103 139 189 297 290 213 175 178 261 205 203 146 137 134 115 79 113 126 119 110 91 67 58 59 46 28 9 344 321 299 269 241 230 221 206 199 193 194 194 285 302 308
68 55 119 143 153 209 231 241 160 113 274 180 159 161 156 152 122 197 153 135 117 100 84 73 73 75 83 55 36 19 83 146 193 193 195 189 188 191 224 269 288 298 300 285
71 33 149 128 194 284 245 216 150 140 239 174 169 167 166 158 163 153 160 148 141 138 134 127 129 129 106 107 103 109 111 116 121 135 153 202 257 280 292 294 294 295 292 292
155 143 176 86 74 281 179 122 171 218 213 178 174 175 172 156 149 156 162 158 154 146 130 123 123 107 95 89 96 105 107 110 120 135 299 313 306 304 303 304 302 300 298 296
199 180 179 181 207 212 186 214 212 244 201 181 179 179 181 165 164 165 163 160 150 143 137 127 120 114 110 109 102 109 102 99 351 343 7 1 333 316 308 304 302 301 301 303
236 156 146 111 216 216 223 226 224 202 190 180 185 180 179 175 170 165 161 153 146 139 135 130 126 119 115 116 118 101 97 84 47 360 332 312 301 298 297 297 299 298 299 300
190 137 155 288 282 287 242 220 209 195 191 181 179 181 180 176 166 167 157 152 148 145 139 137 131 126 119 118 109 101 77 6 334 324 315 311 308 306 304 302 303 301 300 303
191 169 163 213 198 175 198 195 186 181 178 180 180 170 171 177 169 164 155 152 151 148 144 140 132 127 120 113 93 45 347 331 326 320 317 317 316 315 315 313 310 308 308 308
Height
1495 1501 1506 1500 1498 1497 1497 1500 1501 1497 1490 1492 1495 1497 1498 1501 1504 1504 1504 1506 1508 1510 1513 1516 1520 1523 1525 1528 1530 1533 1535 1538 1541 1543 1547 1550 1552 1556 1558 1559 1564 1564 1566 1566
1499 1505 1493 1495 1492 1498 1497 1496 1501 1495 1493 1495 1495 1499 1496 1498 1495 1497 1497 1501 1503 1506 1510 1512 1515 1519 1521 1524 1526 1529 1532 1535 1538 1541 1545 1548 1550 1554 1555 1557 1560 1562 1562 1563
1501 1494 1489 1492 1493 1497 1497 1496 1497 1499 1492 1491 1492 1499 1498 1495 1497 1498 1497 1496 1500 1502 1505 1509 1510 1512 1516 1518 1521 1525 1528 1531 1535 1538 1542 1544 1548 1550 1551 1554 1556 1557 1559 1561
1496 1490 1489 1491 1493 1494 1498 1491 1491 1494 1498 1508 1497 1515 1497 1495 1492 1492 1492 1493 1494 1497 1501 1504 1507 1510 1512 1516 1520 1523 1525 1529 1532 1535 1537 1539 1541 1543 1546 1550 1553 1554 1556 1557
1494 1491 1490 1494 1491 1489 1494 1489 1490 1492 1497 1500 1500 1510 1497 1493 1498 1489 1485 1485 1488 1491 1494 1497 1500 1503 1508 1513 1516 1520 1522 1526 1528 1531 1533 1536 1539 1541 1545 1548 1550 1551 1551 1552
1488 1486 1486 1485 1485 1486 1486 1489 1497 1501 1506 1516 1502 1509 1502 1495 1483 1479 1479 1478 1479 1484 1488 1491 1496 1502 1506 1510 1513 1515 1518 1521 1523 1527 1529 1532 1535 1537 1541 1543 1544 1545 1546 1549
1488 1486 1482 1481 1485 1487 1487 1498 1520 1521 1526 1520 1502 1509 1496 1476 1475 1472 1472 1471 1471 1476 1481 1485 1489 1494 1499 1504 1508 1512 1514 1516 1520 1523 1525 1528 1530 1533 1536 1539 1540 1540 1541 1543
1497 1502 1483 1480 1481 1488 1488 1494 1519 1519 1529 1516 1503 1508 1488 1471 1470 1467 1465 1465 1467 1470 1474 1479 1483 1489 1495 1499 1503 1507 1509 1512 1515 1518 1521 1523 1527 1528 1531 1533 1534 1535 1536 1538
1496 1491 1478 1478 1478 1481 1489 1496 1492 1516 1524 1531 1511 1496 1478 1472 1471 1468 1466 1464 1464 1467 1470 1474 1479 1485 1491 1493 1497 1502 1505 1508 1510 1513 1516 1519 1521 1523 1525 1526 1528 1530 1532 1533
1480 1488 1479 1478 1478 1478 1480 1484 1500 1510 1512 1513 1510 1503 1498 1476 1471 1470 1466 1464 1466 1467 1470 1473 1477 1482 1486 1490 1494 1499 1502 1504 1506 1509 1510 1513 1515 1517 1519 1519 1521 1523 1525 1526
1473 1480 1486 1480 1481 1481 1487 1489 1495 1500 1511 1516 1525 1507 1479 1474 1470 1469 1467 1466 1467 1468 1470 1472 1475 1479 1484 1488 1492 1495 1498 1500 1501 1503 1506 1508 1509 1511 1513 1514 1517 1518 1520 1521
1469 1479 1492 1481 1474 1472 1476 1482 1488 1510 1504 1515 1523 1505 1468 1467 1467 1466 1464 1466 1467 1468 1470 1472 1474 1478 1481 1484 1488 1490 1494 1497 1498 1500 1501 1503 1505 1507 1509 1509 1510 1513 1515 1516
1466 1481 1493 1487 1482 1475 1476 1478 1482 1491 1501 1507 1521 1500 1467 1466 1464 1463 1463 1464 1466 1467 1469 1471 1473 1475 1477 1480 1484 1488 1491 1493 1495 1498 1499 1499 1501 1501 1502 1504 1506 1509 1512 1514
1456 1472 1477 1486 1479 1473 1476 1474 1478 1482 1505 1498 1500 1484 1472 1467 1466 1462 1461 1462 1463 1464 1466 1468 1470 1472 1475 1478 1480 1484 1487 1488 1490 1491 1493 1494 1495 1496 1498 1501 1504 1506 1506 1507
1455 1468 1469 1465 1463 1466 1466 1467 1476 1479 1477 1485 1477 1484 1470 1465 1463 1461 1461 1460 1460 1461 1463 1465 1468 1471 1474 1475 1477 1480 1481 1482 1484 1486 1487 1488 1491 1493 1496 1498 1499 1502 1503 1505
1453 1463 1460 1466 1465 1467 1466 1467 1470 1471 1470 1474 1472 1473 1460 1460 1461 1460 1461 1460 1461 1463 1464 1466 1468 1469 1471 1473 1474 1476 1477 1479 1480 1481 1483 1486 1489 1492 1494 1494 1495 1497 1499 1499
1451 1461 1471 1471 1473 1470 1484 1469 1465 1462 1461 1461 1472 1461 1457 1461 1461 1461 1462 1463 1464 1465 1467 1468 1469 1470 1471 1473 1473 1474 1474 1475 1476 1478 1480 1483 1487 1490 1492 1494 1495 1498 1497 1499
1449 1457 1471 1487 1484 1492 1457 1453 1454 1458 1455 1455 1454 1452 1452 1457 1460 1463 1464 1465 1466 1467 1469 1471 1472 1472 1473 1474 1473 1473 1473 1474 1475 1477 1480 1482 1485 1487 1490 1493 1494 1495 1496 1496
1440 1452 1474 1480 1485 1468 1453 1454 1455 1456 1454 1448 1450 1453 1454 1457 1460 1464 1465 1466 1467 1469 1470 1471 1472 1473 1473 1474 1474 1474 1474 1475 1476 1478 1481 1484 1486 1488 1489 1490 1492 1493 1493 1492
1443 1445 1457 1485 1482 1484 1454 1442 1442 1444 1459 1442 1444 1450 1452 1455 1465 1466 1465 1466 1467 1468 1469 1470 1472 1473 1474 1475 1475 1476 1476 1477 1479 1481 1483 1485 1487 1488 1490 1492 1492 1491 1489 1489
1457 1462 1467 1490 1482 1464 1440 1438 1442 1459 1453 1434 1438 1444 1449 1453 1455 1458 1462 1464 1466 1468 1469 1470 1472 1473 1474 1475 1476 1476 1477 1479 1482 1485 1487 1488 1489 1490 1490 1489 1488 1487 1486 1485
1439 1457 1472 1480 1481 1462 1432 1440 1447 1435 1429 1431 1436 1441 1447 1449 1452 1456 1460 1462 1465 1467 1469 1471 1472 1473 1475 1477 1478 1479 1481 1483 1485 1486 1487 1488 1487 1487 1487 1486 1485 1484 1482 1480
1433 1429 1442 1444 1441 1426 1427 1427 1427 1427 1427 1430 1433 1438 1443 1447 1451 1454 1458 1461 1464 1467 1469 1472 1473 1474 1477 1479 1482 1482 1483 1485 1485 1486 1486 1486 1486 1485 1485 1484 1482 1480 1478 1476
1422 1421 1428 1431 1424 1422 1423 1423 1424 1424 1426 1428 1432 1435 1440 1443 1448 1453 1457 1461 1464 1468 1470 1473 1474 1476 1478 1480 1481 1482 1483 1484 1484 1484 1484 1484 1483 1482 1481 1480 1477 1475 1473 1471
1413 1417 1423 1426 1422 1421 1419 1419 1420 1423 1426 1428 1432 1435 1439 1443 1448 1452 1457 1462 1465 1468 1471 1473 1474 1476 1478 1480 1481 1482 1482 1483 1483 1483 1482 1482 1481 1479 1477 1476 1473 1471 1470 1467
1404 1407 1415 1414 1399 1403 1406 1412 1417 1421 1424 1427 1429 1434 1439 1444 1447 1452 1457 1462 1466 1468 1471 1473 1475 1477 1478 1479 1480 1481 1481 1481 1481 1481 1481 1479 1477 1475 1472 1468 1465 1465 1461 1458